Location: DaVinci Observatory
(43.1080°N, 78.6453°W)
Time: 11:07:55
(UTC-04:00)

Envisat - Pass Details

Date: 09 October 2017
Orbit: 764 x 766 km, 98.2° (Epoch: 23 October)

Event Time Altitude Azimuth Distance (km) Brightness Sun altitude
Exits shadow 21:44:40 36° 268° (W) 1,191 4.3 -33.5°
Drops below altitude 10° 21:49:10 10° 330° (NNW) 2,310 6.1 -34.3°
Sets 21:51:40 0° 339° (NNW) 3,241 6.8 -34.7°
